Location: Unspecified
(51.5147°N, 7.4673°E)
Time: 13:11:43
(UTC+01:00)

Altair - Visible Passes

Search period start: 16 February 2026 00:00
Search period end: 26 February 2026 00:00
Orbit: 1502 x 1682 km, 47.2° (Epoch: 15 February)

Date Brightness Start Highest point End Pass type
(mag) Time Alt. Az. Time Alt. Az. Time Alt. Az.
16 Feb 8.7 04:53:17 13° SSW 05:00:05 32° SE 05:07:59 10° E visible
16 Feb 8.0 06:54:27 10° WSW 07:03:30 61° SSE 07:12:53 10° E visible
17 Feb 8.7 04:29:51 18° S 04:34:59 29° SE 04:42:40 10° E visible
17 Feb 8.0 06:29:19 10° WSW 06:38:19 59° SSE 06:47:38 10° E visible
18 Feb 8.7 04:06:18 21° S 04:09:54 27° SE 04:17:20 10° E visible
18 Feb 7.9 06:04:20 10° SW 06:13:09 57° SSE 06:22:23 10° E visible
19 Feb 8.7 03:42:41 23° SSE 03:44:50 25° SE 03:51:58 10° E visible
19 Feb 7.9 05:40:43 17° SW 05:47:59 55° SSE 05:57:08 10° E visible
20 Feb 8.8 03:18:59 23° SE 03:19:46 23° SE 03:26:35 10° E visible
20 Feb 7.9 05:17:01 23° SW 05:22:49 53° SSE 05:31:52 10° E visible
21 Feb 8.9 02:55:13 22° SE 02:55:13 22° SE 03:01:11 10° E visible
21 Feb 7.9 04:53:15 30° SSW 04:57:40 50° SSE 05:06:37 10° E visible
21 Feb 7.8 06:52:29 10° WSW 07:01:40 69° S 07:11:10 10° E visible
22 Feb 9.1 02:31:24 19° ESE 02:31:24 19° ESE 02:35:43 10° E visible
22 Feb 7.9 04:29:25 37° SSW 04:32:31 48° SSE 04:41:22 10° E visible
22 Feb 7.7 06:27:26 10° WSW 06:36:28 69° S 06:45:56 10° E visible
23 Feb 9.2 02:07:33 15° ESE 02:07:33 15° ESE 02:10:15 10° E visible
23 Feb 7.9 04:05:33 42° S 04:07:23 46° SSE 04:16:07 10° E visible
23 Feb 7.6 06:03:34 16° WSW 06:11:15 68° S 06:20:41 10° E visible
24 Feb 9.4 01:43:39 12° E 01:43:39 12° E 01:44:41 10° E visible
24 Feb 7.9 03:41:39 43° SSE 03:42:14 44° SSE 03:50:52 10° E visible
24 Feb 7.6 05:39:39 22° WSW 05:46:04 68° S 05:55:27 10° E visible
25 Feb 8.0 03:17:43 41° SE 03:17:43 41° SE 03:25:36 10° E visible
25 Feb 7.6 05:15:43 29° WSW 05:20:53 67° S 05:30:12 10° E visible
